When you browse on this site, cookies collect data to enhance your experience and personalize the content and advertising you see.
Visit our Privacy Policy to learn more. By continuing to use the site, you agree to this use of cookies and data.
  • In Switzerland
  • List of Countries
  • For 7 days
  • Water Temperature
  • Weather Map
  • Weather Widgets
  • user-avatar
    Login

    Hourly Weather Zhdanovo

    Today, 25 August, Sunday

    Time Temperature Precipitation Wind Pressure Humidity
    00:00 +15°C° 0 mm 2 mps 747 mmHg 89%
    01:00 +14°C° 0 mm 2 mps 747 mmHg 91%
    02:00 +14°C° 0 mm 2 mps 747 mmHg 93%
    03:00 +14°C° 0 mm 2 mps 747 mmHg 94%
    04:00 +13°C° 0 mm 2 mps 747 mmHg 95%
    05:00 +13°C° 0 mm 2 mps 747 mmHg 96%
    06:00 +13°C° 0 mm 3 mps 748 mmHg 90%
    07:00 +16°C° 0 mm 3 mps 748 mmHg 84%
    08:00 +17°C° 0 mm 3 mps 748 mmHg 78%
    09:00 +18°C° 0 mm 3 mps 748 mmHg 71%
    10:00 +19°C° 0 mm 4 mps 748 mmHg 65%
    11:00 +20°C° 0 mm 4 mps 748 mmHg 59%
    12:00 +21°C° 0 mm 4 mps 749 mmHg 58%
    13:00 +21°C° 0 mm 3 mps 749 mmHg 57%
    14:00 +21°C° 0 mm 3 mps 749 mmHg 57%
    15:00 +21°C° 0 mm 3 mps 749 mmHg 61%
    16:00 +21°C° 0 mm 2 mps 749 mmHg 65%
    17:00 +20°C° 0 mm 2 mps 749 mmHg 69%
    18:00 +18°C° 0 mm 2 mps 749 mmHg 73%
    19:00 +17°C° 0 mm 2 mps 749 mmHg 77%
    20:00 +15°C° 0 mm 1 mps 750 mmHg 81%
    21:00 +14°C° 0 mm 1 mps 750 mmHg 83%
    22:00 +14°C° 0 mm 1 mps 750 mmHg 85%
    23:00 +13°C° 0 mm 1 mps 750 mmHg 87%

    Tomorrow, 26 August, Monday

    Time Temperature Precipitation Wind Pressure Humidity
    00:00 +13°C° 0 mm 1 mps 750 mmHg 88%
    01:00 +13°C° 0 mm 1 mps 750 mmHg 90%
    02:00 +12°C° 0 mm 1 mps 751 mmHg 91%
    03:00 +12°C° 0 mm 1 mps 751 mmHg 92%
    04:00 +12°C° 0 mm 1 mps 750 mmHg 93%
    05:00 +12°C° 0 mm 1 mps 750 mmHg 93%
    06:00 +13°C° 0 mm 1 mps 751 mmHg 87%
    07:00 +14°C° 0 mm 0 mps 751 mmHg 81%
    08:00 +16°C° 0 mm 0 mps 751 mmHg 76%
    09:00 +18°C° 0 mm 0 mps 751 mmHg 70%
    10:00 +19°C° 0 mm 0 mps 750 mmHg 65%
    11:00 +20°C° 0 mm 0 mps 750 mmHg 60%
    12:00 +22°C° 0 mm 1 mps 750 mmHg 58%
    13:00 +23°C° 0 mm 1 mps 750 mmHg 55%
    14:00 +23°C° 0 mm 1 mps 750 mmHg 53%
    15:00 +21°C° 0 mm 2 mps 749 mmHg 57%
    16:00 +21°C° 0 mm 2 mps 748 mmHg 62%
    17:00 +21°C° 0 mm 2 mps 748 mmHg 66%
    18:00 +19°C° 0 mm 2 mps 748 mmHg 69%
    19:00 +17°C° 0 mm 2 mps 748 mmHg 73%
    20:00 +16°C° 0 mm 2 mps 748 mmHg 76%
    21:00 +15°C° 0 mm 2 mps 747 mmHg 78%
    22:00 +15°C° 0 mm 2 mps 747 mmHg 80%
    23:00 +14°C° 0 mm 2 mps 747 mmHg 81%

    Day after tomorrow, 27 August, Tuesday

    Time Temperature Precipitation Wind Pressure Humidity
    00:00 +14°C° 0 mm 2 mps 747 mmHg 83%
    01:00 +14°C° 0 mm 2 mps 746 mmHg 85%
    02:00 +12°C° 0 mm 3 mps 746 mmHg 87%
    03:00 +12°C° 0 mm 3 mps 746 mmHg 88%
    04:00 +13°C° 0 mm 3 mps 745 mmHg 88%
    05:00 +13°C° 0 mm 3 mps 745 mmHg 88%
    06:00 +14°C° 0 mm 4 mps 745 mmHg 85%
    07:00 +15°C° 0 mm 4 mps 745 mmHg 82%
    08:00 +17°C° 0 mm 5 mps 744 mmHg 79%
    09:00 +19°C° 0.2 mm 5 mps 744 mmHg 76%
    10:00 +20°C° 0.2 mm 5 mps 744 mmHg 73%
    11:00 +22°C° 0.2 mm 6 mps 744 mmHg 70%
    12:00 +22°C° 0.1 mm 6 mps 744 mmHg 67%
    13:00 +22°C° 0.1 mm 6 mps 743 mmHg 65%
    14:00 +22°C° 0.1 mm 6 mps 743 mmHg 62%
    15:00 +21°C° 0 mm 5 mps 743 mmHg 64%
    16:00 +20°C° 0 mm 4 mps 743 mmHg 65%
    17:00 +20°C° 0 mm 4 mps 743 mmHg 67%
    18:00 +18°C° 0 mm 4 mps 743 mmHg 68%
    19:00 +17°C° 0 mm 4 mps 743 mmHg 69%
    20:00 +14°C° 0 mm 4 mps 744 mmHg 71%
    21:00 +13°C° 0 mm 3 mps 744 mmHg 74%
    22:00 +13°C° 0 mm 3 mps 744 mmHg 77%
    23:00 +13°C° 0 mm 3 mps 744 mmHg 80%

    28 August, Wednesday

    Time Temperature Precipitation Wind Pressure Humidity
    00:00 +12°C° 0 mm 3 mps 745 mmHg 84%
    01:00 +11°C° 0 mm 3 mps 745 mmHg 87%
    02:00 +10°C° 0 mm 3 mps 745 mmHg 91%
    03:00 +10°C° 0 mm 3 mps 745 mmHg 91%
    04:00 +9°C° 0 mm 3 mps 745 mmHg 92%
    05:00 +8°C° 0 mm 3 mps 746 mmHg 92%
    06:00 +8°C° 0 mm 4 mps 746 mmHg 85%
    07:00 +10°C° 0 mm 4 mps 746 mmHg 77%
    08:00 +10°C° 0 mm 5 mps 746 mmHg 70%
    09:00 +12°C° 0 mm 5 mps 746 mmHg 65%
    10:00 +13°C° 0 mm 5 mps 746 mmHg 59%
    11:00 +14°C° 0 mm 5 mps 746 mmHg 54%
    12:00 +14°C° 0 mm 5 mps 746 mmHg 52%
    13:00 +15°C° 0 mm 5 mps 746 mmHg 50%
    14:00 +15°C° 0 mm 5 mps 746 mmHg 48%
    15:00 +15°C° 0 mm 5 mps 746 mmHg 53%
    16:00 +14°C° 0 mm 4 mps 746 mmHg 57%
    17:00 +13°C° 0 mm 3 mps 747 mmHg 62%
    18:00 +12°C° 0 mm 3 mps 747 mmHg 67%
    19:00 +10°C° 0 mm 3 mps 747 mmHg 72%
    20:00 +8°C° 0 mm 3 mps 747 mmHg 76%
    21:00 +8°C° 0 mm 3 mps 748 mmHg 79%
    22:00 +7°C° 0 mm 2 mps 748 mmHg 81%
    23:00 +6°C° 0 mm 2 mps 748 mmHg 83%

    29 August, Thursday

    Time Temperature Precipitation Wind Pressure Humidity
    00:00 +6°C° 0 mm 2 mps 748 mmHg 85%
    01:00 +6°C° 0 mm 2 mps 748 mmHg 87%
    02:00 +5°C° 0 mm 2 mps 748 mmHg 90%
    03:00 +5°C° 0 mm 2 mps 748 mmHg 91%
    04:00 +5°C° 0 mm 2 mps 749 mmHg 92%
    05:00 +4°C° 0 mm 2 mps 749 mmHg 93%
    06:00 +5°C° 0 mm 3 mps 749 mmHg 85%
    07:00 +8°C° 0 mm 3 mps 749 mmHg 77%
    08:00 +10°C° 0 mm 3 mps 749 mmHg 69%
    09:00 +11°C° 0 mm 4 mps 749 mmHg 65%
    10:00 +12°C° 0 mm 4 mps 749 mmHg 61%
    11:00 +13°C° 0 mm 4 mps 749 mmHg 58%
    12:00 +14°C° 0 mm 4 mps 749 mmHg 55%
    13:00 +14°C° 0 mm 4 mps 749 mmHg 53%
    14:00 +15°C° 0 mm 4 mps 749 mmHg 51%
    15:00 +14°C° 0 mm 3 mps 748 mmHg 55%
    16:00 +14°C° 0 mm 3 mps 748 mmHg 59%
    17:00 +15°C° 0 mm 2 mps 748 mmHg 63%
    18:00 +13°C° 0 mm 2 mps 749 mmHg 66%
    19:00 +10°C° 0 mm 2 mps 749 mmHg 70%
    20:00 +8°C° 0 mm 2 mps 749 mmHg 73%
    21:00 +8°C° 0 mm 2 mps 749 mmHg 75%
    22:00 +7°C° 0 mm 2 mps 749 mmHg 77%
    23:00 +7°C° 0 mm 1 mps 749 mmHg 79%

    30 August, Friday

    Time Temperature Precipitation Wind Pressure Humidity
    00:00 +7°C° 0 mm 1 mps 749 mmHg 81%
    01:00 +7°C° 0 mm 1 mps 749 mmHg 83%
    02:00 +6°C° 0 mm 1 mps 749 mmHg 85%
    03:00 +6°C° 0 mm 1 mps 749 mmHg 86%
    04:00 +6°C° 0 mm 1 mps 749 mmHg 86%
    05:00 +5°C° 0 mm 1 mps 750 mmHg 87%
    06:00 +7°C° 0 mm 1 mps 750 mmHg 80%
    07:00 +8°C° 0 mm 2 mps 750 mmHg 73%
    08:00 +10°C° 0 mm 2 mps 750 mmHg 66%
    09:00 +13°C° 0 mm 2 mps 749 mmHg 61%
    10:00 +14°C° 0 mm 2 mps 749 mmHg 56%
    11:00 +15°C° 0 mm 2 mps 749 mmHg 50%
    12:00 +16°C° 0 mm 2 mps 749 mmHg 48%
    13:00 +17°C° 0 mm 2 mps 748 mmHg 47%
    14:00 +17°C° 0 mm 2 mps 748 mmHg 45%
    15:00 +17°C° 0 mm 2 mps 748 mmHg 50%
    16:00 +16°C° 0 mm 2 mps 747 mmHg 56%
    17:00 +16°C° 0 mm 2 mps 747 mmHg 61%
    18:00 +15°C° 0 mm 2 mps 747 mmHg 64%
    19:00 +13°C° 0 mm 2 mps 747 mmHg 66%
    20:00 +12°C° 0 mm 2 mps 747 mmHg 68%
    21:00 +11°C° 0 mm 3 mps 747 mmHg 74%
    22:00 +11°C° 0 mm 3 mps 747 mmHg 80%
    23:00 +10°C° 0 mm 3 mps 747 mmHg 86%
    Show more